Year,Month,Day,Hour,Minute,Value (Times are PST for temperature in C)
2017,10,26,00,00,5.20
2017,10,26,00,01,5.20
2017,10,26,00,02,5.20
2017,10,26,00,03,5.10
2017,10,26,00,04,5.10
2017,10,26,00,05,5.10
2017,10,26,00,06,5.10
2017,10,26,00,07,5.10
2017,10,26,00,08,5.10
2017,10,26,00,09,5.10
2017,10,26,00,10,5.10
2017,10,26,00,11,5.10
2017,10,26,00,12,5.10
2017,10,26,00,13,5.10
2017,10,26,00,14,5.00
2017,10,26,00,15,5.00
2017,10,26,00,16,5.00
2017,10,26,00,17,5.00
2017,10,26,00,18,5.00
2017,10,26,00,19,5.00
2017,10,26,00,20,5.00
2017,10,26,00,21,5.00
2017,10,26,00,22,4.90
2017,10,26,00,23,4.90
2017,10,26,00,24,4.90
2017,10,26,00,25,4.80
2017,10,26,00,26,4.80
2017,10,26,00,27,4.80
2017,10,26,00,28,4.80
2017,10,26,00,29,4.80
2017,10,26,00,30,4.80
2017,10,26,00,31,4.80
2017,10,26,00,32,4.80
2017,10,26,00,33,4.90
2017,10,26,00,34,4.90
2017,10,26,00,35,4.90
2017,10,26,00,36,5.00
2017,10,26,00,37,5.00
2017,10,26,00,38,5.00
2017,10,26,00,39,5.10
2017,10,26,00,40,5.10
2017,10,26,00,41,5.10
2017,10,26,00,42,5.10
2017,10,26,00,43,5.10
2017,10,26,00,44,5.10
2017,10,26,00,45,5.10
2017,10,26,00,46,5.10
2017,10,26,00,47,5.10
2017,10,26,00,48,5.10
2017,10,26,00,49,5.10
2017,10,26,00,50,5.10
2017,10,26,00,51,5.10
2017,10,26,00,52,5.10
2017,10,26,00,53,5.20
2017,10,26,00,54,5.20
2017,10,26,00,55,5.20
2017,10,26,00,56,5.20
2017,10,26,00,57,5.30
2017,10,26,00,58,5.30
2017,10,26,00,59,5.40
2017,10,26,01,00,5.40
2017,10,26,01,01,5.40
2017,10,26,01,02,5.40
2017,10,26,01,03,5.40
2017,10,26,01,04,5.50
2017,10,26,01,05,5.50
2017,10,26,01,06,5.50
2017,10,26,01,07,5.50
2017,10,26,01,08,5.60
2017,10,26,01,09,5.60
2017,10,26,01,10,5.60
2017,10,26,01,11,5.70
2017,10,26,01,12,5.70
2017,10,26,01,13,5.70
2017,10,26,01,14,5.70
2017,10,26,01,15,5.70
2017,10,26,01,16,5.70
2017,10,26,01,17,5.70
2017,10,26,01,18,5.70
2017,10,26,01,19,5.80
2017,10,26,01,20,5.80
2017,10,26,01,21,5.80
2017,10,26,01,22,5.80
2017,10,26,01,23,5.80
2017,10,26,01,24,5.80
2017,10,26,01,25,5.80
2017,10,26,01,26,5.80
2017,10,26,01,27,5.80
2017,10,26,01,28,5.80
2017,10,26,01,29,5.80
2017,10,26,01,30,5.80
2017,10,26,01,31,5.90
2017,10,26,01,32,5.90
2017,10,26,01,33,5.90
2017,10,26,01,34,5.90
2017,10,26,01,35,5.90
2017,10,26,01,36,5.90
2017,10,26,01,37,5.90
2017,10,26,01,38,5.90
2017,10,26,01,39,6.00
2017,10,26,01,40,6.00
2017,10,26,01,41,6.00
2017,10,26,01,42,6.10
2017,10,26,01,43,6.10
2017,10,26,01,44,6.10
2017,10,26,01,45,6.20
2017,10,26,01,46,6.20
2017,10,26,01,47,6.20
2017,10,26,01,48,6.30
2017,10,26,01,49,6.30
2017,10,26,01,50,6.30
2017,10,26,01,51,6.30
2017,10,26,01,52,6.30
2017,10,26,01,53,6.30
2017,10,26,01,54,6.40
2017,10,26,01,55,6.40
2017,10,26,01,56,6.40
2017,10,26,01,57,6.50
2017,10,26,01,58,6.50
2017,10,26,01,59,6.50
2017,10,26,02,00,6.50
2017,10,26,02,01,6.50
2017,10,26,02,02,6.50
2017,10,26,02,03,6.50
2017,10,26,02,04,6.50
2017,10,26,02,05,6.60
2017,10,26,02,06,6.60
2017,10,26,02,07,6.60
2017,10,26,02,08,6.60
2017,10,26,02,09,6.60
2017,10,26,02,10,6.60
2017,10,26,02,11,6.70
2017,10,26,02,12,6.70
2017,10,26,02,13,6.70
2017,10,26,02,14,6.80
2017,10,26,02,15,6.80
2017,10,26,02,16,6.80
2017,10,26,02,17,6.80
2017,10,26,02,18,6.90
2017,10,26,02,19,6.90
2017,10,26,02,20,6.90
2017,10,26,02,21,7.00
2017,10,26,02,22,7.00
2017,10,26,02,23,7.10
2017,10,26,02,24,7.10
2017,10,26,02,25,7.10
2017,10,26,02,26,7.10
2017,10,26,02,27,7.20
2017,10,26,02,28,7.20
2017,10,26,02,29,7.20
2017,10,26,02,30,7.20
2017,10,26,02,31,7.10
2017,10,26,02,32,7.10
2017,10,26,02,33,7.10
2017,10,26,02,34,7.10
2017,10,26,02,35,7.00
2017,10,26,02,36,7.00
2017,10,26,02,37,7.00
2017,10,26,02,38,7.00
2017,10,26,02,39,7.00
2017,10,26,02,40,7.00
2017,10,26,02,41,7.00
2017,10,26,02,42,7.00
2017,10,26,02,43,7.00
2017,10,26,02,44,7.00
2017,10,26,02,45,7.00
2017,10,26,02,46,7.00
2017,10,26,02,47,7.10
2017,10,26,02,48,7.10
2017,10,26,02,49,7.10
2017,10,26,02,50,7.10
2017,10,26,02,51,7.10
2017,10,26,02,52,7.20
2017,10,26,02,53,7.20
2017,10,26,02,54,7.20
2017,10,26,02,55,7.20
2017,10,26,02,56,7.20
2017,10,26,02,57,7.30
2017,10,26,02,58,7.30
2017,10,26,02,59,7.30
2017,10,26,03,00,7.30
2017,10,26,03,01,7.40
2017,10,26,03,02,7.40
2017,10,26,03,03,7.40
2017,10,26,03,04,7.40
2017,10,26,03,05,7.40
2017,10,26,03,06,7.40
2017,10,26,03,07,7.50
2017,10,26,03,08,7.50
2017,10,26,03,09,7.50
2017,10,26,03,10,7.50
2017,10,26,03,11,7.50
2017,10,26,03,12,7.50
2017,10,26,03,13,7.60
2017,10,26,03,14,7.60
2017,10,26,03,15,7.60
2017,10,26,03,16,7.60
2017,10,26,03,17,7.60
2017,10,26,03,18,7.60
2017,10,26,03,19,7.70
2017,10,26,03,20,7.70
2017,10,26,03,21,7.70
2017,10,26,03,22,7.70
2017,10,26,03,23,7.70
2017,10,26,03,24,7.70
2017,10,26,03,25,7.70
2017,10,26,03,26,7.70
2017,10,26,03,27,7.70
2017,10,26,03,28,7.70
2017,10,26,03,29,7.70
2017,10,26,03,30,7.70
2017,10,26,03,31,7.70
2017,10,26,03,32,7.70
2017,10,26,03,33,7.70
2017,10,26,03,34,7.70
2017,10,26,03,35,7.70
2017,10,26,03,36,7.70
2017,10,26,03,37,7.70
2017,10,26,03,38,7.70
2017,10,26,03,39,7.70
2017,10,26,03,40,7.70
2017,10,26,03,41,7.70
2017,10,26,03,42,7.60
2017,10,26,03,43,7.60
2017,10,26,03,44,7.60
2017,10,26,03,45,7.60
2017,10,26,03,46,7.60
2017,10,26,03,47,7.60
2017,10,26,03,48,7.60
2017,10,26,03,49,7.60
2017,10,26,03,50,7.60
2017,10,26,03,51,7.60
2017,10,26,03,52,7.60
2017,10,26,03,53,7.60
2017,10,26,03,54,7.60
2017,10,26,03,55,7.60
2017,10,26,03,56,7.60
2017,10,26,03,57,7.60
2017,10,26,03,58,7.60
2017,10,26,03,59,7.60
2017,10,26,04,00,7.70
2017,10,26,04,01,7.70
2017,10,26,04,02,7.70
2017,10,26,04,03,7.70
2017,10,26,04,04,7.70
2017,10,26,04,05,7.70
2017,10,26,04,06,7.70
2017,10,26,04,07,7.70
2017,10,26,04,08,7.80
2017,10,26,04,09,7.80
2017,10,26,04,10,7.80
2017,10,26,04,11,7.80
2017,10,26,04,12,7.80
2017,10,26,04,13,7.90
2017,10,26,04,14,7.90
2017,10,26,04,15,7.90
2017,10,26,04,16,8.00
2017,10,26,04,17,8.00
2017,10,26,04,18,8.00
2017,10,26,04,19,8.00
2017,10,26,04,20,8.00
2017,10,26,04,21,8.00
2017,10,26,04,22,8.00
2017,10,26,04,23,8.10
2017,10,26,04,24,8.00
2017,10,26,04,25,8.10
2017,10,26,04,26,8.00
2017,10,26,04,27,8.00
2017,10,26,04,28,8.00
2017,10,26,04,29,8.00
2017,10,26,04,30,8.00
2017,10,26,04,31,7.90
2017,10,26,04,32,7.90
2017,10,26,04,33,7.90
2017,10,26,04,34,7.90
2017,10,26,04,35,7.90
2017,10,26,04,36,7.90
2017,10,26,04,37,7.80
2017,10,26,04,38,7.80
2017,10,26,04,39,7.80
2017,10,26,04,40,7.80
2017,10,26,04,41,7.70
2017,10,26,04,42,7.70
2017,10,26,04,43,7.70
2017,10,26,04,44,7.60
2017,10,26,04,45,7.60
2017,10,26,04,46,7.50
2017,10,26,04,47,7.40
2017,10,26,04,48,7.40
2017,10,26,04,49,7.30
2017,10,26,04,50,7.20
2017,10,26,04,51,7.20
2017,10,26,04,52,7.20
2017,10,26,04,53,7.10
2017,10,26,04,54,7.10
2017,10,26,04,55,7.10
2017,10,26,04,56,7.00
2017,10,26,04,57,7.00
2017,10,26,04,58,6.90
2017,10,26,04,59,6.90
2017,10,26,05,00,6.90
2017,10,26,05,01,6.80
2017,10,26,05,02,6.80
2017,10,26,05,03,6.80
2017,10,26,05,04,6.80
2017,10,26,05,05,6.70
2017,10,26,05,06,6.70
2017,10,26,05,07,6.70
2017,10,26,05,08,6.70
2017,10,26,05,09,6.60
2017,10,26,05,10,6.60
2017,10,26,05,11,6.60
2017,10,26,05,12,6.60
2017,10,26,05,13,6.60
2017,10,26,05,14,6.60
2017,10,26,05,15,6.60
2017,10,26,05,16,6.60
2017,10,26,05,17,6.60
2017,10,26,05,18,6.50
2017,10,26,05,19,6.50
2017,10,26,05,20,6.50
2017,10,26,05,21,6.50
2017,10,26,05,22,6.50
2017,10,26,05,23,6.50
2017,10,26,05,24,6.50
2017,10,26,05,25,6.50
2017,10,26,05,26,6.50
2017,10,26,05,27,6.40
2017,10,26,05,28,6.40
2017,10,26,05,29,6.40
2017,10,26,05,30,6.40
2017,10,26,05,31,6.30
2017,10,26,05,32,6.30
2017,10,26,05,33,6.30
2017,10,26,05,34,6.30
2017,10,26,05,35,6.20
2017,10,26,05,36,6.20
2017,10,26,05,37,6.10
2017,10,26,05,38,6.10
2017,10,26,05,39,6.10
2017,10,26,05,40,6.00
2017,10,26,05,41,6.00
2017,10,26,05,42,6.00
2017,10,26,05,43,6.00
2017,10,26,05,44,5.90
2017,10,26,05,45,6.00
2017,10,26,05,46,6.00
2017,10,26,05,47,6.00
2017,10,26,05,48,5.90
2017,10,26,05,49,6.00
2017,10,26,05,50,5.90
2017,10,26,05,51,5.90
2017,10,26,05,52,5.90
2017,10,26,05,53,5.90
2017,10,26,05,54,5.90
2017,10,26,05,55,5.90
2017,10,26,05,56,5.90
2017,10,26,05,57,5.80
2017,10,26,05,58,5.80
2017,10,26,05,59,5.80
2017,10,26,06,00,5.80
2017,10,26,06,01,5.70
2017,10,26,06,02,5.70
2017,10,26,06,03,5.70
2017,10,26,06,04,5.70
2017,10,26,06,05,5.70
2017,10,26,06,06,5.70
2017,10,26,06,07,5.70
2017,10,26,06,08,5.70
2017,10,26,06,09,5.70
2017,10,26,06,10,5.70
2017,10,26,06,11,5.70
2017,10,26,06,12,5.60
2017,10,26,06,13,5.60
2017,10,26,06,14,5.60
2017,10,26,06,15,5.60
2017,10,26,06,16,5.50
2017,10,26,06,17,5.50
2017,10,26,06,18,5.50
2017,10,26,06,19,5.40
2017,10,26,06,20,5.40
2017,10,26,06,21,5.30
2017,10,26,06,22,5.30
2017,10,26,06,23,5.30
2017,10,26,06,24,5.30
2017,10,26,06,25,5.30
2017,10,26,06,26,5.30
2017,10,26,06,27,5.30
2017,10,26,06,28,5.30
2017,10,26,06,29,5.30
2017,10,26,06,30,5.30
2017,10,26,06,31,5.30
2017,10,26,06,32,5.30
2017,10,26,06,33,5.20
2017,10,26,06,34,5.20
2017,10,26,06,35,5.20
2017,10,26,06,36,5.10
2017,10,26,06,37,5.10
2017,10,26,06,38,5.00
2017,10,26,06,39,5.00
2017,10,26,06,40,4.90
2017,10,26,06,41,4.90
2017,10,26,06,42,4.90
2017,10,26,06,43,4.90
2017,10,26,06,44,4.80
2017,10,26,06,45,4.80
2017,10,26,06,46,4.80
2017,10,26,06,47,4.80
2017,10,26,06,48,4.80
2017,10,26,06,49,4.80
2017,10,26,06,50,4.70
2017,10,26,06,51,4.70
2017,10,26,06,52,4.70
2017,10,26,06,53,4.70
2017,10,26,06,54,4.70
2017,10,26,06,55,4.70
2017,10,26,06,56,4.70
2017,10,26,06,57,4.70
2017,10,26,06,58,4.70
2017,10,26,06,59,4.70
2017,10,26,07,00,4.70
2017,10,26,07,01,4.70
2017,10,26,07,02,4.70
2017,10,26,07,03,4.70
2017,10,26,07,04,4.70
2017,10,26,07,05,4.70
2017,10,26,07,06,4.70
2017,10,26,07,07,4.70
2017,10,26,07,08,4.70
2017,10,26,07,09,4.70
2017,10,26,07,10,4.70
2017,10,26,07,11,4.70
2017,10,26,07,12,4.80
2017,10,26,07,13,4.80
2017,10,26,07,14,4.80
2017,10,26,07,15,4.80
2017,10,26,07,16,4.80
2017,10,26,07,17,4.80
2017,10,26,07,18,4.80
2017,10,26,07,19,4.80
2017,10,26,07,20,4.80
2017,10,26,07,21,4.80
2017,10,26,07,22,4.70
2017,10,26,07,23,4.70
2017,10,26,07,24,4.70
2017,10,26,07,25,4.70
2017,10,26,07,26,4.70
2017,10,26,07,27,4.70
2017,10,26,07,28,4.70
2017,10,26,07,29,4.70
2017,10,26,07,30,4.70
2017,10,26,07,31,4.70
2017,10,26,07,32,4.70
2017,10,26,07,33,4.70
2017,10,26,07,34,4.70
2017,10,26,07,35,4.70
2017,10,26,07,36,4.70
2017,10,26,07,37,4.70
2017,10,26,07,38,4.60
2017,10,26,07,39,4.60
2017,10,26,07,40,4.50
2017,10,26,07,41,4.50
2017,10,26,07,42,4.40
2017,10,26,07,43,4.40
2017,10,26,07,44,4.40
2017,10,26,07,45,4.40
2017,10,26,07,46,4.30
2017,10,26,07,47,4.30
2017,10,26,07,48,4.30
2017,10,26,07,49,4.30
2017,10,26,07,50,4.30
2017,10,26,07,51,4.30
2017,10,26,07,52,4.30
2017,10,26,07,53,4.30
2017,10,26,07,54,4.30
2017,10,26,07,55,4.30
2017,10,26,07,56,4.30
2017,10,26,07,57,4.30
2017,10,26,07,58,4.30
2017,10,26,07,59,4.40
2017,10,26,08,00,4.40
2017,10,26,08,01,4.40
2017,10,26,08,02,4.40
2017,10,26,08,03,4.40
2017,10,26,08,04,4.50
2017,10,26,08,05,4.50
2017,10,26,08,06,4.50
2017,10,26,08,07,4.60
2017,10,26,08,08,4.60
2017,10,26,08,09,4.50
2017,10,26,08,10,4.50
2017,10,26,08,11,4.50
2017,10,26,08,12,4.50
2017,10,26,08,13,4.60
2017,10,26,08,14,4.60
2017,10,26,08,15,4.60
2017,10,26,08,16,4.60
2017,10,26,08,17,4.60
2017,10,26,08,18,4.60
2017,10,26,08,19,4.70
2017,10,26,08,20,4.70
2017,10,26,08,21,4.70
2017,10,26,08,22,4.70
2017,10,26,08,23,4.70
2017,10,26,08,24,4.70
2017,10,26,08,25,4.70
2017,10,26,08,26,4.80
2017,10,26,08,27,4.80
2017,10,26,08,28,4.80
2017,10,26,08,29,4.80
2017,10,26,08,30,4.90
2017,10,26,08,31,4.90
2017,10,26,08,32,4.90
2017,10,26,08,33,4.90
2017,10,26,08,34,4.90
2017,10,26,08,35,4.90
2017,10,26,08,36,4.90
2017,10,26,08,37,4.80
2017,10,26,08,38,4.80
2017,10,26,08,39,4.80
2017,10,26,08,40,4.90
2017,10,26,08,41,4.90
2017,10,26,08,42,4.80
2017,10,26,08,43,4.90
2017,10,26,08,44,4.90
2017,10,26,08,45,4.90
2017,10,26,08,46,4.90
2017,10,26,08,47,4.90
2017,10,26,08,48,5.00
2017,10,26,08,49,5.00
2017,10,26,08,50,5.00
2017,10,26,08,51,5.10
2017,10,26,08,52,5.10
2017,10,26,08,53,5.10
2017,10,26,08,54,5.20
2017,10,26,08,55,5.20
2017,10,26,08,56,5.20
2017,10,26,08,57,5.20
2017,10,26,08,58,5.30
2017,10,26,08,59,5.30
2017,10,26,09,00,5.30
2017,10,26,09,01,5.30
2017,10,26,09,02,5.30
2017,10,26,09,03,5.40
2017,10,26,09,04,5.40
2017,10,26,09,05,5.50
2017,10,26,09,06,5.50
2017,10,26,09,07,5.60
2017,10,26,09,08,5.60
2017,10,26,09,09,5.60
2017,10,26,09,10,5.60
2017,10,26,09,11,5.70
2017,10,26,09,12,5.70
2017,10,26,09,13,5.70
2017,10,26,09,14,5.70
2017,10,26,09,15,5.80
2017,10,26,09,16,5.80
2017,10,26,09,17,5.90
2017,10,26,09,18,5.90
2017,10,26,09,19,6.00
2017,10,26,09,20,6.10
2017,10,26,09,21,6.10
2017,10,26,09,22,6.10
2017,10,26,09,23,6.20
2017,10,26,09,24,6.20
2017,10,26,09,25,6.20
2017,10,26,09,26,6.30
2017,10,26,09,27,6.30
2017,10,26,09,28,6.30
2017,10,26,09,29,6.40
2017,10,26,09,30,6.40
2017,10,26,09,31,6.40
2017,10,26,09,32,6.40
2017,10,26,09,33,6.50
2017,10,26,09,34,6.60
2017,10,26,09,35,6.60
2017,10,26,09,36,6.70
2017,10,26,09,37,6.70
2017,10,26,09,38,6.80
2017,10,26,09,39,6.80
2017,10,26,09,40,6.90
2017,10,26,09,41,7.00
2017,10,26,09,42,7.00
2017,10,26,09,43,7.10
2017,10,26,09,44,7.10
2017,10,26,09,45,7.10
2017,10,26,09,46,7.20
2017,10,26,09,47,7.20
2017,10,26,09,48,7.20
2017,10,26,09,49,7.20
2017,10,26,09,50,7.30
2017,10,26,09,51,7.30
2017,10,26,09,52,7.30
2017,10,26,09,53,7.40
2017,10,26,09,54,7.40
2017,10,26,09,55,7.40
2017,10,26,09,56,7.50
2017,10,26,09,57,7.50
2017,10,26,09,58,7.60
2017,10,26,09,59,7.60
2017,10,26,10,00,7.70
2017,10,26,10,01,7.70
2017,10,26,10,02,7.70
2017,10,26,10,03,7.70
2017,10,26,10,04,7.70
2017,10,26,10,05,7.80
2017,10,26,10,06,7.80
2017,10,26,10,07,7.90
2017,10,26,10,08,8.00
2017,10,26,10,09,8.00
2017,10,26,10,10,8.10
2017,10,26,10,11,8.20
2017,10,26,10,12,8.30
2017,10,26,10,13,8.40
2017,10,26,10,14,8.50
2017,10,26,10,15,8.50
2017,10,26,10,16,8.60
2017,10,26,10,17,8.70
2017,10,26,10,18,8.80
2017,10,26,10,19,8.80
2017,10,26,10,20,8.90
2017,10,26,10,21,8.90
2017,10,26,10,22,9.00
2017,10,26,10,23,9.00
2017,10,26,10,24,9.10
2017,10,26,10,25,9.10
2017,10,26,10,26,9.10
2017,10,26,10,27,9.20
2017,10,26,10,28,9.20
2017,10,26,10,29,9.20
2017,10,26,10,30,9.20
2017,10,26,10,31,9.20
2017,10,26,10,32,9.20
2017,10,26,10,33,9.30
2017,10,26,10,34,9.30
2017,10,26,10,35,9.30
2017,10,26,10,36,9.30
2017,10,26,10,37,9.40
2017,10,26,10,38,9.40
2017,10,26,10,39,9.40
2017,10,26,10,40,9.40
2017,10,26,10,41,9.40
2017,10,26,10,42,9.40
2017,10,26,10,43,9.50
2017,10,26,10,44,9.50
2017,10,26,10,45,9.50
2017,10,26,10,46,9.60
2017,10,26,10,47,9.60
2017,10,26,10,48,9.60
2017,10,26,10,49,9.60
2017,10,26,10,50,9.60
2017,10,26,10,51,9.60
2017,10,26,10,52,9.60
2017,10,26,10,53,9.70
2017,10,26,10,54,9.70
2017,10,26,10,55,9.70
2017,10,26,10,56,9.80
2017,10,26,10,57,9.80
2017,10,26,10,58,9.90
2017,10,26,10,59,10.00
2017,10,26,11,00,10.00
2017,10,26,11,01,10.10
2017,10,26,11,02,10.10
2017,10,26,11,03,10.10
2017,10,26,11,04,10.20
2017,10,26,11,05,10.30
2017,10,26,11,06,10.30
2017,10,26,11,07,10.40
2017,10,26,11,08,10.50
2017,10,26,11,09,10.60
2017,10,26,11,10,10.70
2017,10,26,11,11,10.70
2017,10,26,11,12,10.80
2017,10,26,11,13,10.90
2017,10,26,11,14,10.90
2017,10,26,11,15,11.00
2017,10,26,11,16,11.00
2017,10,26,11,17,11.10
2017,10,26,11,18,11.20
2017,10,26,11,19,11.30
2017,10,26,11,20,11.40
2017,10,26,11,21,11.50
2017,10,26,11,22,11.60
2017,10,26,11,23,11.70
2017,10,26,11,24,11.80
2017,10,26,11,25,11.90
2017,10,26,11,26,12.00
2017,10,26,11,27,12.10
2017,10,26,11,28,12.20
2017,10,26,11,29,12.30
2017,10,26,11,30,12.40
2017,10,26,11,31,12.40
2017,10,26,11,32,12.50
2017,10,26,11,33,12.50
2017,10,26,11,34,12.60
2017,10,26,11,35,12.60
2017,10,26,11,36,12.70
2017,10,26,11,37,12.70
2017,10,26,11,38,12.80
2017,10,26,11,39,12.80
2017,10,26,11,40,12.80
2017,10,26,11,41,12.80
2017,10,26,11,42,12.80
2017,10,26,11,43,12.80
2017,10,26,11,44,12.80
2017,10,26,11,45,12.90
2017,10,26,11,46,12.90
2017,10,26,11,47,12.90
2017,10,26,11,48,12.90
2017,10,26,11,49,13.00
2017,10,26,11,50,13.00
2017,10,26,11,51,13.10
2017,10,26,11,52,13.10
2017,10,26,11,53,13.10
2017,10,26,11,54,13.10
2017,10,26,11,55,13.10
2017,10,26,11,56,13.10
2017,10,26,11,57,13.20
2017,10,26,11,58,13.20
2017,10,26,11,59,13.20
2017,10,26,12,00,13.20
2017,10,26,12,01,13.20
2017,10,26,12,02,13.20
2017,10,26,12,03,13.20
2017,10,26,12,04,13.20
2017,10,26,12,05,13.30
2017,10,26,12,06,13.30
2017,10,26,12,07,13.30
2017,10,26,12,08,13.30
2017,10,26,12,09,13.30
2017,10,26,12,10,13.40
2017,10,26,12,11,13.40
2017,10,26,12,12,13.40
2017,10,26,12,13,13.40
2017,10,26,12,14,13.50
2017,10,26,12,15,13.50
2017,10,26,12,16,13.60
2017,10,26,12,17,13.60
2017,10,26,12,18,13.60
2017,10,26,12,19,13.60
2017,10,26,12,20,13.60
2017,10,26,12,21,13.60
2017,10,26,12,22,13.60
2017,10,26,12,23,13.60
2017,10,26,12,24,13.70
2017,10,26,12,25,13.70
2017,10,26,12,26,13.70
2017,10,26,12,27,13.70
2017,10,26,12,28,13.70
2017,10,26,12,29,13.70
2017,10,26,12,30,13.80
2017,10,26,12,31,13.80
2017,10,26,12,32,13.80
2017,10,26,12,33,13.80
2017,10,26,12,34,13.90
2017,10,26,12,35,13.90
2017,10,26,12,36,13.90
2017,10,26,12,37,13.90
2017,10,26,12,38,13.90
2017,10,26,12,39,13.90
2017,10,26,12,40,13.90
2017,10,26,12,41,13.90
2017,10,26,12,42,13.90
2017,10,26,12,43,13.90
2017,10,26,12,44,13.90
2017,10,26,12,45,13.90
2017,10,26,12,46,13.90
2017,10,26,12,47,13.90
2017,10,26,12,48,13.90
2017,10,26,12,49,13.90
2017,10,26,12,50,13.90
2017,10,26,12,51,13.90
2017,10,26,12,52,13.80
2017,10,26,12,53,13.80
2017,10,26,12,54,13.80
2017,10,26,12,55,13.90
2017,10,26,12,56,13.90
2017,10,26,12,57,14.00
2017,10,26,12,58,14.00
2017,10,26,12,59,14.10
2017,10,26,13,00,14.10
2017,10,26,13,01,14.10
2017,10,26,13,02,14.00
2017,10,26,13,03,14.10
2017,10,26,13,04,14.10
2017,10,26,13,05,14.10
2017,10,26,13,06,14.00
2017,10,26,13,07,14.00
2017,10,26,13,08,14.00
2017,10,26,13,09,14.00
2017,10,26,13,10,14.00
2017,10,26,13,11,14.10
2017,10,26,13,12,14.10
2017,10,26,13,13,14.10
2017,10,26,13,14,14.10
2017,10,26,13,15,14.10
2017,10,26,13,16,14.10
2017,10,26,13,17,14.10
2017,10,26,13,18,14.10
2017,10,26,13,19,14.10
2017,10,26,13,20,14.10
2017,10,26,13,21,14.10
2017,10,26,13,22,14.10
2017,10,26,13,23,14.10
2017,10,26,13,24,14.10
2017,10,26,13,25,14.10
2017,10,26,13,26,14.10
2017,10,26,13,27,14.20
2017,10,26,13,28,14.20
2017,10,26,13,29,14.20
2017,10,26,13,30,14.20
2017,10,26,13,31,14.20
2017,10,26,13,32,14.20
2017,10,26,13,33,14.20
2017,10,26,13,34,14.20
2017,10,26,13,35,14.20
2017,10,26,13,36,14.20
2017,10,26,13,37,14.30
2017,10,26,13,38,14.30
2017,10,26,13,39,14.30
2017,10,26,13,40,14.30
2017,10,26,13,41,14.30
2017,10,26,13,42,14.30
2017,10,26,13,43,14.30
2017,10,26,13,44,14.30
2017,10,26,13,45,14.30
2017,10,26,13,46,14.30
2017,10,26,13,47,14.30
2017,10,26,13,48,14.30
2017,10,26,13,49,14.40
2017,10,26,13,50,14.40
2017,10,26,13,51,14.40
2017,10,26,13,52,14.40
2017,10,26,13,53,14.40
2017,10,26,13,54,14.40
2017,10,26,13,55,14.40
2017,10,26,13,56,14.40
2017,10,26,13,57,14.40
2017,10,26,13,58,14.40
2017,10,26,13,59,14.40
2017,10,26,14,00,14.40
2017,10,26,14,01,14.40
2017,10,26,14,02,14.40
2017,10,26,14,03,14.50
2017,10,26,14,04,14.50
2017,10,26,14,05,14.50
2017,10,26,14,06,14.60
2017,10,26,14,07,14.60
2017,10,26,14,08,14.60
2017,10,26,14,09,14.60
2017,10,26,14,20,14.30
2017,10,26,14,22,14.30
2017,10,26,14,23,14.30
2017,10,26,14,24,14.20
2017,10,26,14,25,14.20
2017,10,26,14,26,14.20
2017,10,26,14,27,14.20
2017,10,26,14,28,14.20
2017,10,26,14,29,14.20
2017,10,26,14,30,14.10
2017,10,26,14,31,14.10
2017,10,26,14,32,14.10
2017,10,26,14,33,14.10
2017,10,26,14,34,14.10
2017,10,26,14,35,14.10
2017,10,26,14,36,14.10
2017,10,26,14,37,14.10
2017,10,26,14,38,14.10
2017,10,26,14,39,14.10
2017,10,26,14,40,14.10
2017,10,26,14,41,14.10
2017,10,26,14,42,14.10
2017,10,26,14,43,14.10
2017,10,26,14,44,14.10
2017,10,26,14,45,14.10
2017,10,26,14,46,14.00
2017,10,26,14,47,14.00
2017,10,26,14,48,14.00
2017,10,26,14,49,14.00
2017,10,26,14,50,14.00
2017,10,26,14,51,13.90
2017,10,26,14,52,13.90
2017,10,26,14,53,13.90
2017,10,26,14,54,13.90
2017,10,26,14,55,13.80
2017,10,26,14,56,13.80
2017,10,26,14,57,13.80
2017,10,26,14,58,13.80
2017,10,26,14,59,13.80
2017,10,26,15,00,13.80
2017,10,26,15,01,13.80
2017,10,26,15,02,13.80
2017,10,26,15,03,13.80
2017,10,26,15,04,13.70
2017,10,26,15,05,13.80
2017,10,26,15,06,13.80
2017,10,26,15,07,13.80
2017,10,26,15,08,13.70
2017,10,26,15,09,13.80
2017,10,26,15,10,13.70
2017,10,26,15,11,13.70
2017,10,26,15,12,13.70
2017,10,26,15,13,13.70
2017,10,26,15,14,13.70
2017,10,26,15,15,13.70
2017,10,26,15,16,13.70
2017,10,26,15,17,13.70
2017,10,26,15,18,13.60
2017,10,26,15,19,13.60
2017,10,26,15,20,13.60
2017,10,26,15,21,13.60
2017,10,26,15,22,13.60
2017,10,26,15,23,13.60
2017,10,26,15,24,13.50
2017,10,26,15,25,13.50
2017,10,26,15,26,13.40
2017,10,26,15,27,13.50
2017,10,26,15,28,13.40
2017,10,26,15,29,13.40
2017,10,26,15,30,13.30
2017,10,26,15,31,13.30
2017,10,26,15,32,13.20
2017,10,26,15,33,13.00
2017,10,26,15,34,12.90
2017,10,26,15,35,12.80
2017,10,26,15,36,12.70
2017,10,26,15,37,12.60
2017,10,26,15,38,12.50
2017,10,26,15,39,12.40
2017,10,26,15,40,12.40
2017,10,26,15,41,12.30
2017,10,26,15,42,12.20
2017,10,26,15,43,12.10
2017,10,26,15,44,12.10
2017,10,26,15,45,12.00
2017,10,26,15,46,12.00
2017,10,26,15,47,11.90
2017,10,26,15,48,11.90
2017,10,26,15,49,11.90
2017,10,26,15,50,11.90
2017,10,26,15,51,11.90
2017,10,26,15,52,11.90
2017,10,26,15,53,11.90
2017,10,26,15,54,11.90
2017,10,26,15,55,11.80
2017,10,26,15,56,11.80
2017,10,26,15,57,11.80
2017,10,26,15,58,11.80
2017,10,26,15,59,11.80
2017,10,26,16,00,11.80
2017,10,26,16,01,11.80
2017,10,26,16,02,11.80
2017,10,26,16,03,11.80
2017,10,26,16,04,11.90
2017,10,26,16,05,11.90
2017,10,26,16,06,12.00
2017,10,26,16,07,12.10
2017,10,26,16,08,12.20
2017,10,26,16,09,12.20
2017,10,26,16,10,12.30
2017,10,26,16,11,12.30
2017,10,26,16,12,12.40
2017,10,26,16,13,12.40
2017,10,26,16,14,12.50
2017,10,26,16,15,12.50
2017,10,26,16,16,12.60
2017,10,26,16,17,12.60
2017,10,26,16,18,12.70
2017,10,26,16,19,12.80
2017,10,26,16,20,12.80
2017,10,26,16,21,12.80
2017,10,26,16,22,12.90
2017,10,26,16,23,12.90
2017,10,26,16,24,13.00
2017,10,26,16,25,13.10
2017,10,26,16,26,13.20
2017,10,26,16,27,13.20
2017,10,26,16,28,13.30
2017,10,26,16,29,13.30
2017,10,26,16,30,13.30
2017,10,26,16,31,13.40
2017,10,26,16,32,13.40
2017,10,26,16,33,13.40
2017,10,26,16,34,13.40
2017,10,26,16,35,13.40
2017,10,26,16,36,13.40
2017,10,26,16,37,13.40
2017,10,26,16,38,13.40
2017,10,26,16,39,13.40
2017,10,26,16,40,13.40
2017,10,26,16,41,13.40
2017,10,26,16,42,13.40
2017,10,26,16,43,13.40
2017,10,26,16,44,13.40
2017,10,26,16,45,13.40
2017,10,26,16,46,13.40
2017,10,26,16,47,13.40
2017,10,26,16,48,13.50
2017,10,26,16,49,13.50
2017,10,26,16,50,13.50
2017,10,26,16,51,13.40
2017,10,26,16,52,13.40
2017,10,26,16,53,13.40
2017,10,26,16,54,13.40
2017,10,26,16,55,13.30
2017,10,26,16,56,13.30
2017,10,26,16,57,13.30
2017,10,26,16,58,13.20
2017,10,26,16,59,13.20
2017,10,26,17,00,13.20
2017,10,26,17,01,13.10
2017,10,26,17,02,13.10
2017,10,26,17,03,13.00
2017,10,26,17,04,12.90
2017,10,26,17,05,12.90
2017,10,26,17,06,12.90
2017,10,26,17,07,12.80
2017,10,26,17,08,12.80
2017,10,26,17,09,12.80
2017,10,26,17,10,12.80
2017,10,26,17,11,12.70
2017,10,26,17,12,12.70
2017,10,26,17,13,12.70
2017,10,26,17,14,12.60
2017,10,26,17,15,12.60
2017,10,26,17,16,12.60
2017,10,26,17,17,12.60
2017,10,26,17,18,12.60
2017,10,26,17,19,12.50
2017,10,26,17,20,12.50
2017,10,26,17,21,12.40
2017,10,26,17,22,12.40
2017,10,26,17,23,12.40
2017,10,26,17,24,12.30
2017,10,26,17,25,12.30
2017,10,26,17,26,12.30
2017,10,26,17,27,12.20
2017,10,26,17,28,12.20
2017,10,26,17,29,12.10
2017,10,26,17,30,12.10
2017,10,26,17,31,12.10
2017,10,26,17,32,12.00
2017,10,26,17,33,12.00
2017,10,26,17,34,11.90
2017,10,26,17,35,11.90
2017,10,26,17,36,11.90
2017,10,26,17,37,11.90
2017,10,26,17,38,11.80
2017,10,26,17,39,11.80
2017,10,26,17,40,11.80
2017,10,26,17,41,11.80
2017,10,26,17,42,11.70
2017,10,26,17,43,11.70
2017,10,26,17,44,11.70
2017,10,26,17,45,11.60
2017,10,26,17,46,11.60
2017,10,26,17,47,11.50
2017,10,26,17,48,11.50
2017,10,26,17,49,11.50
2017,10,26,17,50,11.40
2017,10,26,17,51,11.40
2017,10,26,17,52,11.40
2017,10,26,17,53,11.30
2017,10,26,17,54,11.30
2017,10,26,17,55,11.30
2017,10,26,17,56,11.20
2017,10,26,17,57,11.20
2017,10,26,17,58,11.20
2017,10,26,17,59,11.10